When you browse on this site, cookies collect data to enhance your experience and personalize the content and advertising you see.
Visit our Privacy Policy to learn more. By continuing to use the site, you agree to this use of cookies and data.
  • In Hungary
  • List of Countries
  • For 7 days
  • Water Temperature
  • Satellite Maps
  • Weather Map
  • News
  • Weather Widgets
  • user-avatar
    Login

    Hourly Weather Canelas

    Today, 16 July, Tuesday

    Time Temperature Precipitation Wind Pressure Humidity
    00:00 +19°C° 0 mm 2 mps 750 mmHg 88%
    01:00 +19°C° 0 mm 2 mps 749 mmHg 88%
    02:00 +20°C° 0 mm 1 mps 749 mmHg 88%
    03:00 +20°C° 0 mm 1 mps 749 mmHg 88%
    04:00 +20°C° 0 mm 1 mps 749 mmHg 88%
    05:00 +20°C° 0 mm 1 mps 749 mmHg 86%
    06:00 +22°C° 0 mm 1 mps 749 mmHg 77%
    07:00 +24°C° 0 mm 2 mps 749 mmHg 68%
    08:00 +26°C° 0 mm 2 mps 749 mmHg 59%
    09:00 +28°C° 0 mm 3 mps 749 mmHg 54%
    10:00 +29°C° 0 mm 3 mps 749 mmHg 49%
    11:00 +30°C° 0 mm 4 mps 749 mmHg 44%
    12:00 +30°C° 0 mm 4 mps 749 mmHg 44%
    13:00 +30°C° 0 mm 5 mps 748 mmHg 44%
    14:00 +30°C° 0 mm 5 mps 748 mmHg 44%
    15:00 +30°C° 0 mm 5 mps 748 mmHg 46%
    16:00 +29°C° 0 mm 5 mps 748 mmHg 48%
    17:00 +28°C° 0 mm 5 mps 748 mmHg 50%
    18:00 +26°C° 0 mm 5 mps 748 mmHg 57%
    19:00 +23°C° 0 mm 5 mps 748 mmHg 64%
    20:00 +21°C° 0 mm 5 mps 749 mmHg 71%
    21:00 +21°C° 0 mm 4 mps 749 mmHg 71%
    22:00 +21°C° 0 mm 4 mps 749 mmHg 71%
    23:00 +21°C° 0 mm 3 mps 749 mmHg 71%

    Tomorrow, 17 July, Wednesday

    Time Temperature Precipitation Wind Pressure Humidity
    00:00 +20°C° 0 mm 3 mps 749 mmHg 75%
    01:00 +20°C° 0 mm 3 mps 749 mmHg 78%
    02:00 +19°C° 0 mm 3 mps 748 mmHg 82%
    03:00 +19°C° 0 mm 3 mps 748 mmHg 82%
    04:00 +19°C° 0 mm 3 mps 749 mmHg 81%
    05:00 +19°C° 0 mm 2 mps 749 mmHg 81%
    06:00 +21°C° 0 mm 3 mps 749 mmHg 73%
    07:00 +24°C° 0 mm 3 mps 749 mmHg 65%
    08:00 +26°C° 0 mm 4 mps 750 mmHg 57%
    09:00 +27°C° 0 mm 5 mps 750 mmHg 54%
    10:00 +28°C° 0 mm 6 mps 750 mmHg 50%
    11:00 +30°C° 0 mm 7 mps 750 mmHg 46%
    12:00 +29°C° 0 mm 7 mps 750 mmHg 47%
    13:00 +29°C° 0 mm 8 mps 749 mmHg 47%
    14:00 +29°C° 0 mm 8 mps 749 mmHg 48%
    15:00 +28°C° 0 mm 8 mps 749 mmHg 50%
    16:00 +27°C° 0 mm 8 mps 749 mmHg 53%
    17:00 +26°C° 0 mm 8 mps 749 mmHg 55%
    18:00 +24°C° 0 mm 7 mps 750 mmHg 61%
    19:00 +22°C° 0 mm 6 mps 750 mmHg 67%
    20:00 +21°C° 0 mm 6 mps 750 mmHg 73%
    21:00 +20°C° 0 mm 5 mps 750 mmHg 75%
    22:00 +20°C° 0 mm 5 mps 751 mmHg 77%
    23:00 +19°C° 0 mm 5 mps 751 mmHg 79%

    Day after tomorrow, 18 July, Thursday

    Time Temperature Precipitation Wind Pressure Humidity
    00:00 +19°C° 0 mm 4 mps 751 mmHg 80%
    01:00 +18°C° 0 mm 4 mps 750 mmHg 82%
    02:00 +18°C° 0 mm 4 mps 750 mmHg 83%
    03:00 +18°C° 0 mm 4 mps 750 mmHg 82%
    04:00 +18°C° 0 mm 4 mps 750 mmHg 81%
    05:00 +18°C° 0 mm 4 mps 750 mmHg 80%
    06:00 +20°C° 0 mm 4 mps 750 mmHg 69%
    07:00 +23°C° 0 mm 4 mps 750 mmHg 58%
    08:00 +26°C° 0 mm 4 mps 751 mmHg 46%
    09:00 +27°C° 0 mm 5 mps 751 mmHg 40%
    10:00 +29°C° 0 mm 6 mps 750 mmHg 34%
    11:00 +32°C° 0 mm 7 mps 750 mmHg 28%
    12:00 +32°C° 0 mm 7 mps 750 mmHg 31%
    13:00 +32°C° 0 mm 8 mps 750 mmHg 34%
    14:00 +32°C° 0 mm 8 mps 749 mmHg 38%
    15:00 +31°C° 0 mm 8 mps 749 mmHg 43%
    16:00 +28°C° 0 mm 8 mps 749 mmHg 48%
    17:00 +27°C° 0 mm 7 mps 749 mmHg 54%
    18:00 +26°C° 0 mm 6 mps 749 mmHg 60%
    19:00 +23°C° 0 mm 6 mps 750 mmHg 67%
    20:00 +21°C° 0 mm 5 mps 750 mmHg 73%
    21:00 +21°C° 0 mm 4 mps 750 mmHg 74%
    22:00 +21°C° 0 mm 4 mps 750 mmHg 76%
    23:00 +21°C° 0 mm 4 mps 750 mmHg 77%

    19 July, Friday

    Time Temperature Precipitation Wind Pressure Humidity
    00:00 +20°C° 0 mm 3 mps 750 mmHg 78%
    01:00 +20°C° 0 mm 3 mps 750 mmHg 78%
    02:00 +20°C° 0 mm 3 mps 749 mmHg 79%
    03:00 +20°C° 0 mm 3 mps 749 mmHg 78%
    04:00 +20°C° 0 mm 3 mps 749 mmHg 77%
    05:00 +20°C° 0 mm 3 mps 749 mmHg 76%
    06:00 +24°C° 0 mm 3 mps 749 mmHg 66%
    07:00 +26°C° 0 mm 3 mps 750 mmHg 55%
    08:00 +29°C° 0 mm 3 mps 750 mmHg 45%
    09:00 +30°C° 0 mm 4 mps 749 mmHg 42%
    10:00 +32°C° 0 mm 5 mps 749 mmHg 39%
    11:00 +33°C° 0 mm 6 mps 749 mmHg 36%
    12:00 +32°C° 0 mm 7 mps 749 mmHg 38%
    13:00 +32°C° 0 mm 7 mps 748 mmHg 40%
    14:00 +32°C° 0 mm 8 mps 748 mmHg 42%
    15:00 +29°C° 0 mm 7 mps 748 mmHg 47%
    16:00 +28°C° 0 mm 7 mps 748 mmHg 53%
    17:00 +27°C° 0 mm 7 mps 748 mmHg 58%
    18:00 +24°C° 0 mm 6 mps 748 mmHg 65%
    19:00 +23°C° 0 mm 6 mps 749 mmHg 71%
    20:00 +21°C° 0 mm 5 mps 749 mmHg 78%
    21:00 +21°C° 0 mm 5 mps 749 mmHg 81%
    22:00 +20°C° 0 mm 5 mps 749 mmHg 83%
    23:00 +20°C° 0 mm 4 mps 749 mmHg 86%

    20 July, Saturday

    Time Temperature Precipitation Wind Pressure Humidity
    00:00 +19°C° 0 mm 4 mps 749 mmHg 87%
    01:00 +19°C° 0 mm 4 mps 749 mmHg 88%
    02:00 +19°C° 0 mm 3 mps 749 mmHg 89%
    03:00 +19°C° 0 mm 3 mps 749 mmHg 89%
    04:00 +19°C° 0 mm 3 mps 749 mmHg 89%
    05:00 +19°C° 0 mm 3 mps 749 mmHg 89%
    06:00 +20°C° 0 mm 3 mps 750 mmHg 81%
    07:00 +22°C° 0 mm 4 mps 750 mmHg 73%
    08:00 +25°C° 0 mm 5 mps 750 mmHg 65%
    09:00 +26°C° 0 mm 5 mps 750 mmHg 59%
    10:00 +27°C° 0 mm 6 mps 750 mmHg 53%
    11:00 +28°C° 0 mm 7 mps 751 mmHg 47%
    12:00 +28°C° 0 mm 7 mps 750 mmHg 47%
    13:00 +27°C° 0 mm 7 mps 750 mmHg 47%
    14:00 +27°C° 0 mm 8 mps 750 mmHg 46%
    15:00 +26°C° 0 mm 7 mps 750 mmHg 49%
    16:00 +24°C° 0 mm 7 mps 750 mmHg 51%
    17:00 +24°C° 0 mm 7 mps 751 mmHg 53%
    18:00 +22°C° 0 mm 7 mps 751 mmHg 60%
    19:00 +20°C° 0 mm 6 mps 751 mmHg 67%
    20:00 +19°C° 0 mm 6 mps 752 mmHg 74%
    21:00 +17°C° 0 mm 5 mps 752 mmHg 76%
    22:00 +17°C° 0 mm 5 mps 752 mmHg 79%
    23:00 +18°C° 0 mm 4 mps 752 mmHg 81%

    21 July, Sunday

    Time Temperature Precipitation Wind Pressure Humidity
    00:00 +17°C° 0 mm 4 mps 752 mmHg 81%
    01:00 +17°C° 0 mm 3 mps 752 mmHg 81%
    02:00 +17°C° 0 mm 3 mps 752 mmHg 81%
    03:00 +17°C° 0 mm 3 mps 752 mmHg 81%
    04:00 +17°C° 0 mm 3 mps 752 mmHg 80%
    05:00 +17°C° 0 mm 3 mps 752 mmHg 80%
    06:00 +20°C° 0 mm 3 mps 752 mmHg 70%
    07:00 +22°C° 0 mm 3 mps 752 mmHg 60%
    08:00 +26°C° 0 mm 3 mps 752 mmHg 50%
    09:00 +27°C° 0 mm 4 mps 752 mmHg 47%
    10:00 +29°C° 0 mm 4 mps 752 mmHg 43%
    11:00 +30°C° 0 mm 5 mps 752 mmHg 40%
    12:00 +30°C° 0 mm 6 mps 752 mmHg 41%
    13:00 +30°C° 0 mm 6 mps 751 mmHg 41%
    14:00 +29°C° 0 mm 7 mps 751 mmHg 42%
    15:00 +29°C° 0 mm 6 mps 751 mmHg 45%
    16:00 +28°C° 0 mm 6 mps 751 mmHg 47%
    17:00 +27°C° 0 mm 5 mps 751 mmHg 50%
    18:00 +25°C° 0 mm 5 mps 751 mmHg 57%
    19:00 +23°C° 0 mm 4 mps 751 mmHg 63%
    20:00 +21°C° 0 mm 4 mps 751 mmHg 70%
    21:00 +20°C° 0 mm 4 mps 751 mmHg 72%
    22:00 +20°C° 0 mm 3 mps 751 mmHg 74%
    23:00 +19°C° 0 mm 3 mps 751 mmHg 76%
    Show more